Elmira, NY

1:58 AM EST on November 20, 2017 (GMT -0500)
Elmira-Corning Regional

Weather History for KELM - October, 2012

Change the Weather History Date:

Wednesday, October 31, 2012

  Actual Average Record
Temperature  
Mean Temperature 41 °F -  
Max Temperature 44 °F 53 °F 80 °F (1950)
Min Temperature 39 °F 29 °F 18 °F (1983)
Degree Days  
Heating Degree Days 24    
Moisture  
Dew Point 35 °F    
Average Humidity 80    
Maximum Humidity 87    
Minimum Humidity 71    
Precipitation  
Precipitation 0.00 in - - ()
Sea Level Pressure  
Sea Level Pressure 29.45 in    
Wind  
Wind Speed 3 mph (SW)    
Max Wind Speed 9 mph    
Max Gust Speed -    
Visibility 10 miles    
Events Rain    
Averages and records for this station are not official NWS values.
T = Trace of Precipitation, MM = Missing Value Source: NWS Daily Summary

Daily Weather History Graph

Daily Weather History Graph

Search for Another Location

Airport or City:

Trip Planner

Search our weather history database for the weather conditions in past years. The results will help you decide how hot, cold, wet, or windy it might be!

Date:

Astronomy

Oct. 31, 2012 Rise Set
Actual Time 7:39 AM EDT 6:01 PM EDT
Civil Twilight 7:10 AM EDT 6:30 PM EDT
Nautical Twilight 6:37 AM EDT 7:03 PM EDT
Astronomical Twilight 6:05 AM EDT 7:36 PM EDT
Moon 7:09 PM EDT (10/31) 9:20 AM EDT (10/31)
Length of Visible Light 11h 20m
Length of Day
10h 22m
Full, 97% of the Moon is Illuminated
Oct 31
Full
Nov 6
Last Quarter
Nov 13
New
Nov 20
First Quarter
Nov 28
Full

Hourly Weather History & Observations

Time (EDT) Temp. Windchill Dew Point Humidity Pressure Visibility Wind Dir Wind Speed Gust Speed Precip Events Conditions
12:53 AM 42.1 °F 40.2 °F 36.0 °F 79% 29.41 in 10.0 mi SE 3.5 mph - N/A   Overcast
1:53 AM 41.0 °F - 36.0 °F 82% 29.41 in 10.0 mi Calm Calm - N/A   Overcast
2:53 AM 41.0 °F - 36.0 °F 82% 29.41 in 10.0 mi Calm Calm - N/A   Overcast
3:53 AM 41.0 °F - 36.0 °F 82% 29.41 in 10.0 mi Calm Calm - N/A   Overcast
4:05 AM 41.0 °F - 35.6 °F 81% 29.40 in 10.0 mi Calm Calm - N/A   Overcast
4:53 AM 41.0 °F - 36.0 °F 82% 29.42 in 10.0 mi Calm Calm - N/A   Overcast
5:26 AM 41.0 °F - 35.6 °F 81% 29.40 in 10.0 mi Calm Calm - N/A   Overcast
5:53 AM 41.0 °F - 36.0 °F 82% 29.43 in 10.0 mi Calm Calm - N/A   Overcast
6:30 AM 41.0 °F - 35.6 °F 81% 29.42 in 10.0 mi Calm Calm - N/A   Overcast
6:53 AM 41.0 °F 39.0 °F 35.1 °F 79% 29.44 in 10.0 mi South 3.5 mph - N/A   Overcast
7:53 AM 39.9 °F - 35.1 °F 83% 29.44 in 10.0 mi Calm Calm - N/A   Overcast
8:53 AM 39.9 °F - 35.1 °F 83% 29.45 in 10.0 mi Calm Calm - N/A   Overcast
9:53 AM 41.0 °F 38.0 °F 35.1 °F 79% 29.45 in 10.0 mi SW 4.6 mph - N/A   Overcast
10:30 AM 41.0 °F 35.8 °F 33.8 °F 76% 29.44 in 10.0 mi SSW 8.1 mph - N/A   Overcast
10:53 AM 41.0 °F 35.2 °F 33.1 °F 73% 29.46 in 10.0 mi SSW 9.2 mph - N/A   Overcast
11:28 AM 41.0 °F 37.1 °F 33.8 °F 76% 29.44 in 10.0 mi SSW 5.8 mph - N/A   Overcast
11:53 AM 41.0 °F 35.8 °F 34.0 °F 76% 29.46 in 10.0 mi SSW 8.1 mph - N/A   Overcast
12:53 PM 41.0 °F 38.0 °F 34.0 °F 76% 29.46 in 10.0 mi SW 4.6 mph - N/A   Overcast
1:53 PM 42.1 °F 38.4 °F 35.1 °F 76% 29.45 in 10.0 mi SSW 5.8 mph - 0.00 in   Overcast
3:53 PM 43.0 °F 38.2 °F 34.0 °F 71% 29.46 in 10.0 mi SSW 8.1 mph - 0.00 in   Overcast
4:53 PM 42.1 °F 38.4 °F 35.1 °F 76% 29.47 in 10.0 mi SW 5.8 mph - 0.00 in Rain Light Rain
5:53 PM 42.1 °F 37.7 °F 35.1 °F 76% 29.48 in 10.0 mi WSW 6.9 mph - 0.00 in   Overcast
6:53 PM 41.0 °F 37.1 °F 36.0 °F 82% 29.49 in 10.0 mi WSW 5.8 mph - 0.00 in   Overcast
7:05 PM 41.0 °F 37.1 °F 35.6 °F 81% 29.48 in 10.0 mi SW 5.8 mph - N/A   Overcast
7:15 PM 41.0 °F 39.0 °F 35.6 °F 81% 29.48 in 10.0 mi WSW 3.5 mph - N/A   Overcast
7:53 PM 42.1 °F 38.4 °F 36.0 °F 79% 29.50 in 10.0 mi SW 5.8 mph - 0.00 in Rain Light Rain
8:28 PM 42.8 °F 38.0 °F 35.6 °F 76% 29.49 in 10.0 mi WSW 8.1 mph - 0.00 in Rain Light Rain
8:53 PM 42.1 °F 37.7 °F 36.0 °F 79% 29.50 in 10.0 mi WSW 6.9 mph - 0.00 in Rain Light Rain
9:53 PM 41.0 °F 38.0 °F 37.0 °F 86% 29.50 in 10.0 mi SW 4.6 mph - 0.00 in Rain Light Rain
10:33 PM 41.0 °F 38.0 °F 37.4 °F 87% 29.48 in 10.0 mi WSW 4.6 mph - 0.00 in Rain Light Rain
10:53 PM 41.0 °F 37.1 °F 37.0 °F 86% 29.50 in 10.0 mi WSW 5.8 mph - 0.00 in Rain Light Rain
11:53 PM 41.0 °F 36.4 °F 37.0 °F 86% 29.50 in 10.0 mi WSW 6.9 mph - 0.00 in Rain Light Rain